TimeMDT,TemperatureF,Dew PointF,Humidity,Sea Level PressureIn,VisibilityMPH,Wind Direction,Wind SpeedMPH,Gust SpeedMPH,PrecipitationIn,Events,Conditions,WindDirDegrees,DateUTC
12:53 AM,55.0,30.9,40,29.92,10.0,Calm,Calm,-,N/A,,Clear,0,2012-10-05 06:53:00
1:53 AM,48.0,30.0,50,29.95,10.0,Calm,Calm,-,N/A,,Clear,0,2012-10-05 07:53:00
2:53 AM,46.9,30.9,54,29.95,10.0,Calm,Calm,-,N/A,,Clear,0,2012-10-05 08:53:00
3:53 AM,43.0,30.0,60,29.95,10.0,NNW,5.8,-,N/A,,Clear,340,2012-10-05 09:53:00
4:53 AM,53.1,28.9,40,29.92,10.0,Variable,4.6,-,N/A,,Clear,0,2012-10-05 10:53:00
5:53 AM,46.9,28.9,50,29.96,10.0,NNW,3.5,-,N/A,,Clear,340,2012-10-05 11:53:00
6:53 AM,52.0,28.0,40,29.96,10.0,SW,5.8,-,N/A,,Clear,230,2012-10-05 12:53:00
7:53 AM,53.1,30.0,41,29.99,10.0,WSW,3.5,-,N/A,,Clear,250,2012-10-05 13:53:00
9:53 AM,64.9,30.0,27,29.96,10.0,WSW,13.8,-,N/A,,Clear,240,2012-10-05 15:53:00
10:53 AM,68.0,28.9,23,29.94,10.0,West,15.0,-,N/A,,Clear,270,2012-10-05 16:53:00
11:53 AM,71.1,27.0,19,29.91,10.0,WSW,16.1,21.9,N/A,,Clear,240,2012-10-05 17:53:00
12:53 PM,75.0,26.1,16,29.88,10.0,WSW,19.6,26.5,N/A,,Clear,240,2012-10-05 18:53:00
1:53 PM,75.0,24.1,15,29.87,10.0,West,18.4,29.9,N/A,,Clear,260,2012-10-05 19:53:00
2:53 PM,77.0,21.0,12,29.85,10.0,West,18.4,27.6,N/A,,Clear,260,2012-10-05 20:53:00
3:53 PM,75.9,19.0,12,29.85,10.0,West,19.6,29.9,N/A,,Clear,270,2012-10-05 21:53:00
4:53 PM,75.9,19.0,12,29.81,10.0,West,18.4,28.8,N/A,,Clear,270,2012-10-05 22:53:00
5:53 PM,73.0,19.0,13,29.85,10.0,West,12.7,24.2,N/A,,Clear,280,2012-10-05 23:53:00
6:53 PM,68.0,21.0,17,29.85,10.0,West,9.2,-,N/A,,Clear,260,2012-10-06 00:53:00
7:53 PM,61.0,19.0,20,29.89,10.0,NW,5.8,-,N/A,,Clear,320,2012-10-06 01:53:00
8:53 PM,60.1,18.0,20,29.87,10.0,North,3.5,-,N/A,,Clear,350,2012-10-06 02:53:00
9:53 PM,60.1,19.9,21,29.86,10.0,ESE,4.6,-,N/A,,Clear,110,2012-10-06 03:53:00
10:53 PM,57.0,21.0,25,29.86,10.0,East,3.5,-,N/A,,Clear,100,2012-10-06 04:53:00
11:53 PM,55.9,36.0,47,29.86,10.0,SE,13.8,-,N/A,,Clear,140,2012-10-06 05:53:00